[[{"header":{"parameterUnit":"m.s-1","parameterCategory":1,"la1":30.2991,"la2":30.254,"lo1":-89.0895,"lo2":-89.0444,"dy":0.0017,"dx":0.0017,"nx":28,"ny":28,"refTime":"2023-11-17T09:00:00:Z","depth":0,"parameterNumber":2,"parameterNumberName":"U-component_of_WINDS"},"data":[0,0,0,0,0,0,0,0,0,0,0,0,0,0,0,0,0,0,0,0,0,0,0,0,0,0,0,0,0,0,0,0,0,0,0,0,0,0,0,0,0,0,0,0,0,0,0,0,0,0,0,0,0,0,0,0,0,0,-1.1941,-1.1941,0,-1.1942,-1.1942,-1.1942,-1.1911,-1.191,-1.1909,-1.1909,-1.1912,-1.1913,-1.1914,0,0,0,0,0,0,0,0,0,0,0,0,0,-1.1915,-1.1916,-1.1941,-1.1941,-1.1941,-1.1942,-1.1942,-1.1942,-1.1911,-1.191,-1.1909,-1.1908,-1.1912,-1.1913,-1.1914,0,0,0,0,0,0,0,0,0,0,0,0,0,-1.1922,-1.1916,-1.1941,-1.1926,-1.1924,-1.1942,-1.1942,-1.1942,-1.1911,-1.191,-1.1909,-1.1908,-1.1911,-1.1913,-1.1914,-1.1946,0,0,-1.1918,-1.1918,0,0,0,0,0,0,0,0,-1.1922,-1.1923,-1.1928,-1.1927,-1.1925,-1.1925,-1.1934,-1.1943,-1.1912,-1.1916,-1.1909,-1.1907,-1.1917,-1.1918,-1.1921,-1.1947,-1.1947,-1.1918,-1.1919,-1.1919,-1.192,0,0,0,0,0,0,0,-1.1921,-1.1923,-1.1941,-1.1928,-1.1926,-1.1919,-1.1919,-1.1935,-1.1924,-1.1916,-1.1914,-1.1914,-1.1917,-1.192,-1.1921,-1.1947,-1.1918,-1.1919,-1.192,-1.192,-1.2,-1.2001,0,0,0,0,0,0,-1.1922,-1.1923,-1.1941,-1.1941,-1.192,-1.1921,-1.1921,-1.1926,-1.1924,-1.1922,-1.1915,-1.1913,-1.1918,-1.192,-1.1921,-1.196,-1.1919,-1.192,-1.1921,-1.1999,-1.2,-1.2002,0,0,0,0,0,0,-1.1922,-1.1924,-1.1941,-1.1931,-1.1933,-1.1923,-1.1929,-1.1927,-1.193,-1.1923,-1.1921,-1.1921,-1.1917,-1.1919,-1.194,-1.196,-1.1921,-1.1922,-1.1997,-1.1999,-1.2001,-1.2038,0,0,0,0,0,0,-1.1921,-1.1924,-1.1936,-1.1932,-1.1933,-1.196,-1.1931,-1.1928,-1.1932,-1.1929,-1.1928,-1.1926,-1.1917,-1.1939,-1.1942,-1.1961,-1.1923,-1.1995,-1.1998,-1.2,-1.2035,-1.2041,-1.2046,0,0,0,0,0,-1.1921,-1.1947,-1.1937,-1.1939,-1.1948,-1.1961,-1.1962,-1.195,-1.1934,-1.1946,-1.1941,-1.1926,-1.1956,-1.1941,-1.1944,-1.1964,-1.1994,-1.1997,-1.2,-1.2032,-1.204,-1.2046,0,0,0,0,0,0,-1.1955,-1.1946,-1.1935,-1.1961,-1.1962,-1.1956,-1.1971,-1.1958,-1.1964,-1.1961,-1.1946,-1.1946,-1.197,-1.1969,-1.1952,-1.1996,-1.1973,-1.1976,-1.1996,-1.2003,-1.2008,-1.2009,-1.1924,0,0,0,0,0,-1.1965,-1.1976,-1.1968,-1.1991,-1.1992,-1.1982,-1.1987,-1.1977,-1.1978,-1.1979,-1.1975,-1.1978,-1.1988,-1.1995,-1.2004,-1.2034,-1.2034,-1.2049,-1.2054,-1.2059,-1.2063,-1.208,-1.2087,-1.2012,-1.2012,-1.2011,0,0,-1.1987,-1.1984,-1.1992,-1.1998,-1.1998,-1.201,-1.1982,-1.1996,-1.2006,-1.1981,-1.2001,-1.1999,-1.2,-1.2026,-1.2038,-1.2026,-1.2084,-1.2063,-1.2066,-1.2068,-1.2084,-1.2091,-1.2098,-1.2014,-1.2013,-1.2013,0,0,-1.2034,-1.2032,-1.2052,-1.2052,-1.2051,-1.2044,-1.2049,-1.2045,-1.2042,-1.2061,-1.2043,-1.2054,-1.2072,-1.2074,-1.2077,-1.2124,-1.2111,-1.2127,-1.2157,-1.2174,-1.218,-1.2185,-1.2204,-1.221,-1.2131,-1.2131,-1.2131,0,-1.2062,-1.2079,-1.2064,-1.2079,-1.2083,-1.206,-1.208,-1.2081,-1.2084,-1.2088,-1.2074,-1.2096,-1.2095,-1.2122,-1.2133,-1.2136,-1.2142,-1.2128,-1.218,-1.2185,-1.219,-1.2207,-1.2214,-1.2133,-1.2133,-1.2132,-1.2132,0,-1.2114,-1.2126,-1.2142,-1.2145,-1.2151,-1.2168,-1.2156,-1.2164,-1.2153,-1.2147,-1.2168,-1.2166,-1.2174,-1.2179,-1.2169,-1.2205,-1.2198,-1.2182,-1.2159,-1.2199,-1.2216,-1.2222,-1.2136,-1.2135,-1.2135,-1.2134,0,0,-1.2185,-1.2178,-1.2184,-1.2185,-1.2183,-1.2193,-1.2209,-1.2217,-1.2224,-1.2226,-1.2241,-1.2256,-1.2242,-1.2245,-1.2235,-1.225,-1.2289,-1.2232,-1.2232,-1.2245,-1.233,-1.2344,-1.2352,-1.2279,-1.228,-1.2281,-1.2331,0,-1.2231,-1.226,-1.2246,-1.2276,-1.2288,-1.2266,-1.2281,-1.2281,-1.2276,-1.2286,-1.228,-1.2292,-1.227,-1.2273,-1.2286,-1.2281,-1.2306,-1.2277,-1.2295,-1.2296,-1.2298,-1.236,-1.2374,-1.2421,-1.2337,-1.2338,-1.2339,0,-1.229,-1.2295,-1.2326,-1.2322,-1.2327,-1.234,-1.2346,-1.2355,-1.2356,-1.2351,-1.2355,-1.2341,-1.2358,-1.2334,-1.2358,-1.2339,-1.2345,-1.2343,-1.2345,-1.2348,-1.2321,-1.2367,-1.2436,-1.2444,-1.2348,-1.2347,-1.2347,0,-1.2341,-1.2355,-1.2376,-1.2377,-1.2372,-1.2383,-1.2381,-1.238,-1.2385,-1.239,-1.2394,-1.2401,-1.2406,-1.2412,-1.2401,-1.2384,-1.2428,-1.2402,-1.2426,-1.2427,-1.2439,-1.2439,-1.2512,-1.2438,-1.2438,-1.2438,-1.2438,0,-1.2396,-1.2417,-1.2398,-1.2412,-1.2434,-1.2418,-1.2441,-1.2437,-1.2436,-1.2449,-1.2429,-1.2442,-1.2426,-1.2437,-1.2428,-1.2451,-1.2452,-1.245,-1.2448,-1.2454,-1.2454,-1.2459,-1.2457,-1.244,-1.244,-1.2439,-1.2439,0,-1.2458,-1.2446,-1.2467,-1.2461,-1.2459,-1.2477,-1.2471,-1.2484,-1.2476,-1.2493,-1.2496,-1.2485,-1.2497,-1.2486,-1.2498,-1.2492,-1.2523,-1.2515,-1.2523,-1.2522,-1.2547,-1.2546,-1.2628,-1.2639,-1.2557,-1.2557,-1.2558,0,-1.2495,-1.251,-1.2505,-1.2512,-1.2511,-1.2522,-1.2528,-1.2512,-1.2518,-1.252,-1.2532,-1.2542,-1.255,-1.2571,-1.2565,-1.2574,-1.2567,-1.2595,-1.2569,-1.2574,-1.2571,-1.2571,-1.2573,-1.2602,-1.2603,-1.2604,-1.2604,0,-1.2563,-1.2556,-1.2564,-1.257,-1.2577,-1.2581,-1.2584,-1.2591,-1.2575,-1.2583,-1.2595,-1.2601,-1.2612,-1.2624,-1.263,-1.263,-1.2615,-1.2612,-1.2619,-1.2626,-1.2631,-1.2631,-1.254,-1.2611,-1.261,-1.261,-1.261,-1.2609,-1.2615,-1.2628,-1.2626,-1.2636,-1.2636,-1.2639,-1.2651,-1.2645,-1.2654,-1.2662,-1.2652,-1.2667,-1.2667,-1.2675,-1.2676,-1.2688,-1.2677,-1.2686,-1.2688,-1.2692,-1.2696,-1.2626,-1.2689,-1.2689,-1.2689,-1.2689,-1.2688,0,-1.2684,-1.2681,-1.269,-1.2695,-1.2703,-1.2686,-1.2688,-1.2697,-1.271,-1.2711,-1.2719,-1.2733,-1.2743,-1.2737,-1.2747,-1.2758,-1.2751,-1.2761,-1.2762,-1.2762,-1.2705,-1.27,-1.2766,-1.2766,-1.2766,-1.2766,-1.2766,-1.2766,-1.2721,-1.2743,-1.2736,-1.2758,-1.2755,-1.2769,-1.2772,-1.2775,-1.2776,-1.2793,-1.2801,-1.2796,-1.2795,-1.2804,-1.2814,-1.2811,-1.2817,-1.283,-1.2826,-1.2773,-1.2766,-1.2759,-1.2753,-1.283,-1.283,-1.2882,-1.2882,-1.2883]},{"header":{"parameterUnit":"m.s-1","parameterCategory":1,"la1":30.2991,"la2":30.254,"lo1":-89.0895,"lo2":-89.0444,"dy":0.0017,"dx":0.0017,"nx":28,"ny":28,"refTime":"2023-11-17T09:00:00:Z","depth":0,"parameterNumber":3,"parameterNumberName":"V-component_of_WINDS"},"data":[0,0,0,0,0,0,0,0,0,0,0,0,0,0,0,0,0,0,0,0,0,0,0,0,0,0,0,0,0,0,0,0,0,0,0,0,0,0,0,0,0,0,0,0,0,0,0,0,0,0,0,0,0,0,0,0,0,0,-1.6206,-1.6206,0,-1.6192,-1.6191,-1.6191,-1.6159,-1.6158,-1.6157,-1.6157,-1.6142,-1.6142,-1.6143,0,0,0,0,0,0,0,0,0,0,0,0,0,-1.6206,-1.6206,-1.6206,-1.6206,-1.6206,-1.6192,-1.6191,-1.6191,-1.6159,-1.6158,-1.6157,-1.6156,-1.6142,-1.6142,-1.6143,0,0,0,0,0,0,0,0,0,0,0,0,0,-1.62,-1.6206,-1.6206,-1.6188,-1.6186,-1.6192,-1.6191,-1.6191,-1.6159,-1.6158,-1.6157,-1.6156,-1.6142,-1.6142,-1.6143,-1.6165,0,0,-1.6144,-1.6144,0,0,0,0,0,0,0,0,-1.6201,-1.62,-1.6191,-1.6189,-1.6187,-1.6176,-1.6186,-1.6182,-1.6159,-1.6169,-1.6157,-1.6155,-1.6154,-1.6153,-1.6153,-1.6164,-1.6164,-1.6144,-1.6144,-1.6144,-1.6144,0,0,0,0,0,0,0,-1.6201,-1.6201,-1.62,-1.6191,-1.6188,-1.6181,-1.6179,-1.6185,-1.6168,-1.6168,-1.6166,-1.6165,-1.6153,-1.6153,-1.6152,-1.6163,-1.6144,-1.6144,-1.6144,-1.6144,-1.6193,-1.6194,0,0,0,0,0,0,-1.6204,-1.6201,-1.6201,-1.62,-1.6192,-1.6181,-1.6179,-1.6181,-1.6167,-1.6164,-1.6165,-1.6163,-1.6153,-1.6152,-1.6152,-1.6177,-1.6144,-1.6144,-1.6145,-1.6192,-1.6193,-1.6194,0,0,0,0,0,0,-1.6204,-1.6204,-1.6201,-1.62,-1.6199,-1.6182,-1.6184,-1.6181,-1.618,-1.6165,-1.6162,-1.6168,-1.6152,-1.6151,-1.6162,-1.6176,-1.6145,-1.6145,-1.6191,-1.6192,-1.6194,-1.6228,0,0,0,0,0,0,-1.6204,-1.6205,-1.6213,-1.62,-1.6199,-1.6212,-1.6185,-1.6181,-1.6181,-1.6178,-1.6167,-1.6164,-1.6151,-1.6162,-1.6162,-1.6176,-1.6145,-1.6189,-1.6191,-1.6193,-1.6226,-1.6231,-1.6235,0,0,0,0,0,-1.6205,-1.6223,-1.6213,-1.6213,-1.6209,-1.6213,-1.6212,-1.6196,-1.6182,-1.619,-1.6181,-1.6165,-1.6175,-1.6163,-1.6164,-1.6178,-1.6188,-1.6191,-1.6193,-1.6224,-1.623,-1.6235,0,0,0,0,0,0,-1.6237,-1.6221,-1.621,-1.6225,-1.6221,-1.6207,-1.6217,-1.6203,-1.6202,-1.6199,-1.618,-1.6178,-1.6191,-1.6185,-1.6173,-1.6199,-1.6179,-1.6182,-1.6202,-1.6208,-1.6212,-1.6213,-1.6145,0,0,0,0,0,-1.6246,-1.625,-1.6236,-1.6251,-1.6249,-1.6234,-1.6234,-1.6223,-1.6217,-1.6215,-1.6206,-1.6202,-1.6204,-1.6205,-1.6207,-1.6225,-1.6222,-1.6235,-1.624,-1.6244,-1.6246,-1.6256,-1.6261,-1.6202,-1.6202,-1.6202,0,0,-1.6265,-1.6256,-1.626,-1.6257,-1.6252,-1.6257,-1.6232,-1.6238,-1.6242,-1.6216,-1.6226,-1.6219,-1.6213,-1.6228,-1.6234,-1.6223,-1.6262,-1.6247,-1.625,-1.625,-1.6259,-1.6265,-1.627,-1.6204,-1.6204,-1.6203,0,0,-1.6301,-1.6295,-1.6307,-1.6302,-1.6295,-1.6285,-1.6288,-1.6277,-1.6272,-1.6281,-1.6262,-1.6266,-1.627,-1.6266,-1.6265,-1.6301,-1.6286,-1.6302,-1.6327,-1.6336,-1.6341,-1.6345,-1.6358,-1.6363,-1.6305,-1.6305,-1.6305,0,-1.6325,-1.6331,-1.6314,-1.6322,-1.6321,-1.6299,-1.6311,-1.6307,-1.6301,-1.6301,-1.629,-1.6295,-1.6289,-1.6303,-1.6311,-1.6311,-1.6314,-1.6303,-1.6342,-1.6346,-1.6349,-1.6361,-1.6366,-1.6307,-1.6306,-1.6306,-1.6306,0,-1.6361,-1.6366,-1.6377,-1.6371,-1.6372,-1.6382,-1.6366,-1.6369,-1.6358,-1.6349,-1.6359,-1.6351,-1.6351,-1.6353,-1.6342,-1.6366,-1.6359,-1.6345,-1.6325,-1.6357,-1.6368,-1.6373,-1.6309,-1.6309,-1.6308,-1.6308,0,0,-1.6417,-1.6403,-1.6407,-1.6404,-1.6395,-1.6399,-1.6408,-1.6407,-1.641,-1.6407,-1.6414,-1.6419,-1.6405,-1.6404,-1.6392,-1.6401,-1.643,-1.6386,-1.6385,-1.6394,-1.6456,-1.6467,-1.6473,-1.6421,-1.6421,-1.6422,-1.6457,0,-1.6451,-1.6465,-1.6451,-1.6468,-1.6473,-1.6451,-1.6459,-1.6455,-1.6447,-1.645,-1.6441,-1.6445,-1.6427,-1.6426,-1.6434,-1.6425,-1.6442,-1.6422,-1.6427,-1.6428,-1.6429,-1.6478,-1.6489,-1.6523,-1.6461,-1.6462,-1.6462,0,-1.6492,-1.6491,-1.6509,-1.6499,-1.6501,-1.6508,-1.6507,-1.651,-1.6505,-1.6498,-1.6497,-1.6483,-1.6492,-1.6472,-1.6484,-1.6471,-1.6472,-1.6468,-1.6469,-1.6468,-1.6447,-1.6479,-1.6533,-1.6538,-1.6469,-1.6468,-1.6468,0,-1.6531,-1.6534,-1.6545,-1.6544,-1.6533,-1.6539,-1.6534,-1.6528,-1.6529,-1.6528,-1.6528,-1.6529,-1.6529,-1.6529,-1.6516,-1.6503,-1.6529,-1.6508,-1.6524,-1.6525,-1.653,-1.653,-1.6585,-1.6532,-1.6532,-1.6532,-1.6531,0,-1.657,-1.6582,-1.6563,-1.6569,-1.6582,-1.6566,-1.6579,-1.6573,-1.6567,-1.6573,-1.6555,-1.6561,-1.6543,-1.6546,-1.6536,-1.6547,-1.6548,-1.6543,-1.654,-1.6544,-1.6545,-1.6545,-1.6542,-1.6533,-1.6533,-1.6532,-1.6532,0,-1.6615,-1.6603,-1.6614,-1.6603,-1.66,-1.661,-1.6601,-1.6607,-1.6599,-1.6606,-1.6607,-1.6593,-1.6597,-1.6584,-1.6585,-1.6578,-1.6595,-1.6588,-1.6597,-1.6595,-1.6611,-1.661,-1.6668,-1.6674,-1.6617,-1.6618,-1.6618,0,-1.6641,-1.665,-1.664,-1.6643,-1.6639,-1.6643,-1.6644,-1.6629,-1.663,-1.6626,-1.6632,-1.6635,-1.6636,-1.6643,-1.6633,-1.6634,-1.6627,-1.6647,-1.6627,-1.6632,-1.6628,-1.6627,-1.6628,-1.6651,-1.6652,-1.6653,-1.6653,0,-1.6688,-1.6682,-1.6684,-1.6684,-1.6686,-1.6685,-1.6683,-1.6686,-1.6669,-1.6672,-1.6676,-1.6676,-1.6678,-1.6681,-1.668,-1.6676,-1.6662,-1.666,-1.6664,-1.6668,-1.6673,-1.6671,-1.6608,-1.6658,-1.6658,-1.6657,-1.6657,-1.6657,-1.6725,-1.6731,-1.6726,-1.6729,-1.6726,-1.6725,-1.673,-1.6722,-1.6725,-1.6725,-1.6716,-1.6721,-1.6717,-1.6714,-1.6712,-1.6716,-1.6707,-1.6712,-1.6714,-1.6715,-1.6718,-1.6672,-1.6716,-1.6716,-1.6716,-1.6715,-1.6715,0,-1.6771,-1.6766,-1.6769,-1.6767,-1.677,-1.6757,-1.6754,-1.6757,-1.6762,-1.6759,-1.676,-1.6765,-1.6768,-1.6759,-1.676,-1.6765,-1.6759,-1.6766,-1.6765,-1.6765,-1.6726,-1.6723,-1.6771,-1.6771,-1.6771,-1.6771,-1.6771,-1.6771,-1.6795,-1.6806,-1.6799,-1.6809,-1.6804,-1.681,-1.681,-1.6809,-1.6806,-1.6812,-1.6814,-1.6808,-1.6803,-1.6804,-1.6806,-1.6803,-1.6804,-1.6814,-1.6809,-1.6773,-1.6767,-1.6762,-1.6759,-1.6814,-1.6814,-1.6847,-1.6847,-1.6848]}]]